TimeEDT,TemperatureF,Dew PointF,Humidity,Sea Level PressureIn,VisibilityMPH,Wind Direction,Wind SpeedMPH,Gust SpeedMPH,PrecipitationIn,Events,Conditions,WindDirDegrees,DateUTC
12:53 AM,37.9,36.0,93,29.72,10.0,SSW,8.1,-,N/A,,Overcast,210,2012-11-01 04:53:00
1:53 AM,37.9,36.0,93,29.73,10.0,SW,6.9,-,0.01,,Overcast,220,2012-11-01 05:53:00
2:53 AM,37.9,36.0,93,29.73,6.0,SSW,5.8,-,0.01,,Overcast,210,2012-11-01 06:53:00
3:53 AM,37.9,36.0,93,29.73,10.0,SW,10.4,-,N/A,,Overcast,220,2012-11-01 07:53:00
4:51 AM,37.4,35.6,93,29.70,10.0,SSW,8.1,-,N/A,,Overcast,210,2012-11-01 08:51:00
4:53 AM,37.9,36.0,93,29.73,10.0,SSW,8.1,-,N/A,,Overcast,210,2012-11-01 08:53:00
5:30 AM,37.4,35.6,93,29.70,10.0,SW,8.1,-,N/A,,Overcast,220,2012-11-01 09:30:00
6:07 AM,37.4,35.6,93,29.71,10.0,SW,8.1,-,N/A,,Overcast,220,2012-11-01 10:07:00
6:26 AM,37.4,35.6,93,29.71,10.0,SW,5.8,-,N/A,,Overcast,220,2012-11-01 10:26:00
6:53 AM,37.9,36.0,93,29.74,10.0,SSW,6.9,-,N/A,,Overcast,210,2012-11-01 10:53:00
8:53 AM,37.9,36.0,93,29.77,4.0,SSW,8.1,-,0.03,Rain,Light Rain,210,2012-11-01 12:53:00
9:53 AM,37.9,36.0,93,29.78,8.0,SSW,6.9,-,0.01,,Overcast,210,2012-11-01 13:53:00
10:50 AM,37.4,35.6,93,29.77,2.5,SSW,9.2,-,N/A,,Overcast,210,2012-11-01 14:50:00
10:53 AM,37.9,36.0,93,29.79,2.5,SSW,9.2,-,N/A,,Overcast,210,2012-11-01 14:53:00
11:09 AM,39.2,37.4,93,29.76,4.0,SW,9.2,-,N/A,,Overcast,220,2012-11-01 15:09:00
11:53 AM,39.0,37.0,93,29.79,10.0,SSW,8.1,-,0.01,Rain,Light Rain,210,2012-11-01 15:53:00
12:05 PM,39.2,37.4,93,29.77,10.0,SW,5.8,-,0.00,,Overcast,220,2012-11-01 16:05:00
12:23 PM,39.2,37.4,93,29.76,10.0,SW,8.1,16.1,0.00,,Overcast,220,2012-11-01 16:23:00
12:53 PM,39.9,37.0,89,29.78,10.0,SSW,5.8,-,0.00,,Overcast,210,2012-11-01 16:53:00
1:53 PM,41.0,37.9,89,29.76,10.0,Variable,4.6,-,0.00,,Overcast,0,2012-11-01 17:53:00
2:53 PM,39.9,37.9,93,29.75,7.0,SSW,8.1,-,0.01,,Overcast,210,2012-11-01 18:53:00
3:01 PM,41.0,37.4,87,29.73,7.0,Variable,4.6,-,N/A,,Overcast,0,2012-11-01 19:01:00
3:36 PM,41.0,37.4,87,29.74,10.0,WSW,12.7,-,N/A,,Overcast,240,2012-11-01 19:36:00
3:53 PM,41.0,37.0,86,29.76,10.0,WSW,12.7,-,N/A,,Overcast,240,2012-11-01 19:53:00
4:20 PM,41.0,37.4,87,29.74,10.0,SSW,4.6,-,N/A,,Overcast,210,2012-11-01 20:20:00
4:53 PM,42.1,37.0,82,29.76,10.0,SSW,3.5,-,N/A,,Overcast,210,2012-11-01 20:53:00
5:53 PM,41.0,37.9,89,29.77,7.0,Calm,Calm,-,N/A,,Overcast,0,2012-11-01 21:53:00
6:53 PM,41.0,37.0,86,29.79,10.0,South,4.6,-,N/A,,Overcast,190,2012-11-01 22:53:00
7:53 PM,39.9,37.0,89,29.81,10.0,SW,6.9,-,N/A,,Overcast,230,2012-11-01 23:53:00
8:53 PM,39.9,37.0,89,29.81,10.0,SW,4.6,-,N/A,,Overcast,220,2012-11-02 00:53:00
9:04 PM,39.2,37.4,93,29.80,10.0,Calm,Calm,-,N/A,,Overcast,0,2012-11-02 01:04:00
9:34 PM,39.2,37.4,93,29.80,7.0,Calm,Calm,-,N/A,,Overcast,0,2012-11-02 01:34:00
9:53 PM,39.0,37.0,93,29.83,7.0,Calm,Calm,-,N/A,,Overcast,0,2012-11-02 01:53:00
10:53 PM,39.0,37.9,96,29.83,5.0,Calm,Calm,-,N/A,,Overcast,0,2012-11-02 02:53:00
11:53 PM,39.0,37.0,93,29.82,6.0,South,4.6,-,N/A,,Overcast,190,2012-11-02 03:53:00